Location: Smoky Mountain Stargaze
(35.4252°N, 83.3329°W)
Time: 12:18:35
(UTC-04:00)

Amateur Radio Satellites - All Passes

Search period start: 05 September 2015 11:48
Search period end: 06 September 2015 11:48
Location: Smoky Mountain Stargaze, 35.4252°N, 83.3329°W

Satellite Date Start Highest point End Downlink Frequencies (MHz)
Time Altitude Azimuth
PCSat 05 Sep 11:49:05 11:54:17 48° 249° (WSW) 11:59:26 145.827
DUCHIFAT 1 05 Sep 11:51:57 11:56:06 59° 76° (ENE) 12:00:18 145.980
CUSAT 1 05 Sep 11:55:15 12:03:19 64° 266° (W) 12:11:08 437.405
POLYITAN 1 05 Sep 11:55:33 11:59:48 71° 76° (ENE) 12:04:06 437.675
POPSAT HIP 1 05 Sep 11:56:05 12:00:19 70° 77° (ENE) 12:04:37 437.405
CINEMA 3 05 Sep 12:00:21 12:02:11 12° 295° (WNW) 12:03:42 145.822/145.860
CUBEBUG 1 05 Sep 12:03:21 12:06:07 17° 92° (E) 12:09:03 437.445
NANOSAT C BR1 05 Sep 12:11:18 12:15:33 77° 259° (W) 12:19:49 145.865
TIGRISAT 05 Sep 12:12:26 12:16:28 28° 265° (W) 12:20:28 435.000
Cosmos 2504 05 Sep 12:13:57 12:21:26 37° 273° (W) 12:28:18 435.465 / 435.565
QB50P2 05 Sep 12:14:26 12:18:40 66° 259° (W) 12:22:56 145.880/145.840
AISAT 05 Sep 12:17:32 12:21:47 42° 98° (E) 12:26:04 437.250
JUGNU 05 Sep 12:18:56 12:22:25 16° 174° (S) 12:25:56 437.505
ESTCUBE 1 05 Sep 12:23:13 12:27:21 35° 97° (E) 12:31:30 437.505/2401.250
HO-68 05 Sep 12:24:44 12:27:29 12° 303° (WNW) 12:29:44 435.675
QB50P1 05 Sep 12:27:23 12:31:28 47° 261° (W) 12:35:37 145.935-145.965
ZACube-1 05 Sep 12:29:50 12:32:49 17° 291° (WNW) 12:35:37 437.345
HUMSAT D 05 Sep 12:31:32 12:35:29 39° 286° (WNW) 12:39:19 437.325/437.525
FUNcube-1 05 Sep 12:32:56 12:35:48 17° 292° (WNW) 12:38:28 145.935
ANTELSAT 05 Sep 12:32:56 12:36:01 16° 269° (W) 12:38:53 437.575/2403.000
AUBIESAT-1 05 Sep 12:39:55 12:42:59 16° 263° (W) 12:45:50 437.475
VELOX 1 05 Sep 12:44:03 12:48:33 84° 104° (ESE) 12:53:01 145.980
50 SAT 05 Sep 12:45:43 12:49:32 65° 284° (WNW) 12:53:17 437.505
M-CUBED/EXP-1 PRIME 05 Sep 12:52:22 12:53:37 11° 266° (W) 12:54:31 437.505
GONETS M04 05 Sep 12:58:24 13:04:01 19° 65° (ENE) 13:10:08
DANDE 05 Sep 13:00:51 13:07:58 32° 271° (W) 13:15:02 436.750
DX 1 05 Sep 13:11:18 13:15:07 29° 289° (WNW) 13:18:52 434.975-435.025
BUGSAT 1 05 Sep 13:13:27 13:16:43 23° 265° (W) 13:19:58 437.445
SPROUT 05 Sep 13:13:53 13:17:44 31° 96° (E) 13:21:37 437.525
UKube-1 05 Sep 13:15:45 13:19:30 28° 289° (WNW) 13:23:12 .
Oscar 19 05 Sep 13:29:27 13:33:50 29° 70° (ENE) 13:38:19 437.125/150
ISS 05 Sep 13:37:30 13:39:25 15° 27° (NNE) 13:41:24 145.825
CUBEBUG 1 05 Sep 13:38:32 13:42:37 37° 287° (WNW) 13:46:41 437.445
SRMSAT 05 Sep 13:38:59 13:42:00 14° 171° (S) 13:45:03 437.500
AISAT 05 Sep 13:55:16 13:58:02 16° 292° (WNW) 14:00:38 437.250
JAS-2 05 Sep 13:55:53 13:59:14 14° 59° (ENE) 14:03:04 435.910
TISAT 1 05 Sep 13:57:04 14:01:17 55° 100° (E) 14:05:27 437.305
BEESAT 3 05 Sep 13:57:49 14:01:35 39° 114° (ESE) 14:05:25 437.485
ESTCUBE 1 05 Sep 14:00:48 14:03:59 19° 291° (WNW) 14:07:01 437.505/2401.250
JUGNU 05 Sep 14:07:01 14:10:43 17° 184° (S) 14:14:24 437.505
Cosmos 2499 05 Sep 14:10:44 14:13:40 12° 59° (ENE) 14:17:10 435.465 / 435.565
BEESAT 2 05 Sep 14:17:31 14:21:27 49° 116° (ESE) 14:25:26 435.950
SWISSCUBE 05 Sep 14:25:07 14:28:23 19° 93° (E) 14:31:48 437.505
ITAMSAT 1 05 Sep 14:39:30 14:44:05 34° 71° (ENE) 14:48:45 435.822/435.867
SPROUT 05 Sep 14:50:28 14:53:37 19° 290° (WNW) 14:56:38 437.525
Gurwin Techsat 1B 05 Sep 14:51:12 14:56:22 56° 74° (ENE) 15:01:34 435.225
GONETS M04 05 Sep 14:53:11 15:02:02 80° 266° (W) 15:10:51
ITUPSAT 1 05 Sep 15:05:16 15:09:50 46° 99° (E) 15:14:25 437.325
Oscar 19 05 Sep 15:08:41 15:13:09 28° 265° (W) 15:17:33 437.125/150
ISS 05 Sep 15:12:55 15:16:09 66° 224° (SW) 15:19:21 145.825
RS-15 05 Sep 15:21:31 15:31:28 45° 110° (ESE) 15:41:55 29.354- 29.394
SRMSAT 05 Sep 15:26:41 15:30:26 17° 181° (S) 15:34:11 437.500
AIST 2 05 Sep 15:29:24 15:33:32 57° 116° (ESE) 15:37:43 435.215
HORYU 2 05 Sep 15:32:03 15:33:25 11° 66° (ENE) 15:35:02 437.375
BEESAT 05 Sep 15:34:55 15:39:41 81° 284° (WNW) 15:44:27 436.000
TISAT 1 05 Sep 15:35:10 15:36:36 11° 293° (WNW) 15:37:48 437.305
JAS-2 05 Sep 15:35:28 15:43:10 74° 74° (ENE) 15:51:00 435.910
BEESAT 3 05 Sep 15:36:57 15:39:41 17° 311° (NW) 15:42:20 437.485
AO-7 05 Sep 15:56:11 16:04:01 48° 66° (ENE) 16:11:56 29.400- 29.500
JUGNU 05 Sep 15:57:10 15:59:00 11° 193° (SSW) 16:00:44 437.505
BEESAT 2 05 Sep 15:57:26 15:59:48 14° 313° (NW) 16:02:03 435.950
Cosmos 2499 05 Sep 16:00:10 16:08:41 77° 82° (E) 16:16:31 435.465 / 435.565
SWISSCUBE 05 Sep 16:01:59 16:06:23 37° 288° (WNW) 16:10:44 437.505
ITAMSAT 1 05 Sep 16:19:28 16:23:40 24° 265° (W) 16:27:46 435.822/435.867
STARS 05 Sep 16:26:20 16:30:14 31° 97° (E) 16:34:11 437.465
Gurwin Techsat 1B 05 Sep 16:33:39 16:36:47 15° 269° (W) 16:39:38 435.225
ITUPSAT 1 05 Sep 16:44:22 16:47:23 16° 293° (WNW) 16:50:13 437.325
GONETS M04 05 Sep 16:54:11 16:57:43 12° 281° (W) 17:00:28
KKS-1 05 Sep 16:58:00 17:02:27 62° 285° (WNW) 17:06:51 437.445
HORYU 2 05 Sep 17:05:09 17:09:35 60° 259° (W) 17:14:03 437.375
AIST 2 05 Sep 17:10:12 17:12:30 14° 314° (NW) 17:14:39 435.215
SRMSAT 05 Sep 17:16:07 17:18:53 13° 190° (S) 17:21:35 437.500
JAS-2 05 Sep 17:23:13 17:28:53 21° 271° (W) 17:34:14 435.910
RS-15 05 Sep 17:33:20 17:43:50 48° 310° (NW) 17:54:40 29.354- 29.394
CUTE-I 05 Sep 17:44:34 17:46:52 13° 64° (ENE) 17:49:27 437.470
MOZHAYETS 4 05 Sep 17:48:32 17:53:04 64° 100° (E) 17:57:34
AO-7 05 Sep 17:49:33 17:57:01 34° 263° (W) 18:04:18 29.400- 29.500
Cosmos 2499 05 Sep 17:55:34 18:00:52 18° 279° (W) 18:05:30 435.465 / 435.565
O/OREOS (USA 219) 05 Sep 18:01:13 18:04:50 24° 103° (ESE) 18:08:34 437.305
STARS 05 Sep 18:03:09 18:06:30 21° 291° (WNW) 18:09:43 437.465
CUBESAT XI-V 05 Sep 18:22:59 18:23:56 11° 89° (E) 18:25:14 437.345
Cubesat XI-IV 05 Sep 18:38:09 18:43:10 45° 72° (ENE) 18:48:13 437.490
AIST 1 05 Sep 18:46:49 18:49:55 19° 74° (ENE) 18:53:09
Cosmos 2491 05 Sep 19:09:33 19:15:09 19° 65° (ENE) 19:21:14 435.465 / 435.565
CUTE-I 05 Sep 19:21:08 19:26:25 70° 258° (WSW) 19:31:44 437.470
MOZHAYETS 4 05 Sep 19:28:28 19:29:48 11° 294° (WNW) 19:30:51
O/OREOS (USA 219) 05 Sep 19:40:17 19:44:11 27° 298° (WNW) 19:48:02 437.305
PRISM 05 Sep 19:42:06 19:42:16 10° 90° (E) 19:42:44 437.425
BRITE-PL 05 Sep 19:48:35 19:52:32 32° 71° (ENE) 19:56:50 437.365/2234.400
GOMX 1 05 Sep 19:50:30 19:53:50 20° 68° (ENE) 19:57:28 467.674
RS-15 05 Sep 19:53:44 20:00:19 16° 341° (NNW) 20:06:42 29.354- 29.394
CUBESAT XI-V 05 Sep 19:57:15 20:01:51 61° 285° (WNW) 20:06:27 437.345
CANX-2 05 Sep 20:06:02 20:07:02 11° 67° (ENE) 20:08:18 2200.000
SEEDS 05 Sep 20:18:13 20:18:37 10° 67° (ENE) 20:19:17 437.485
Cubesat XI-IV 05 Sep 20:19:41 20:23:31 19° 267° (W) 20:27:10 437.490
STRAND 1 05 Sep 20:19:50 20:24:49 51° 100° (E) 20:29:47 437.568
AIST 1 05 Sep 20:23:50 20:27:37 28° 269° (W) 20:31:19
COMPASS 1 05 Sep 20:30:17 20:31:17 11° 68° (ENE) 20:32:32 437.405
AAUSAT CUBESAT 2 05 Sep 20:35:57 20:36:35 10° 67° (ENE) 20:37:28 437.432
HO-68 05 Sep 20:58:15 21:05:16 63° 71° (ENE) 21:12:22 435.675
Cosmos 2491 05 Sep 21:04:22 21:13:09 79° 265° (W) 21:21:56 435.465 / 435.565
YUBILEINY 05 Sep 21:05:24 21:13:48 54° 91° (E) 21:22:20 435.215
DOVE 4 05 Sep 21:13:26 21:18:07 88° 251° (WSW) 21:23:09 437.250
PRISM 05 Sep 21:14:02 21:18:03 51° 286° (WNW) 21:22:03 437.425
CINEMA 3 05 Sep 21:18:50 21:23:20 44° 73° (ENE) 21:28:03 145.822/145.860
CUTE 1.7 + AOD 2 05 Sep 21:23:19 21:27:36 83° 78° (ENE) 21:31:53 437.475
GOMX 1 05 Sep 21:27:28 21:31:42 36° 264° (W) 21:36:12 467.674
BRITE-PL 05 Sep 21:27:52 21:31:13 20° 269° (W) 21:34:37 437.365/2234.400
CANX-2 05 Sep 21:38:18 21:42:32 57° 260° (W) 21:46:44 2200.000
ZACube-1 05 Sep 21:45:54 21:49:17 21° 70° (ENE) 21:52:49 437.345
FUNcube-1 05 Sep 21:48:37 21:52:03 22° 70° (ENE) 21:55:39 145.935
SEEDS 05 Sep 21:49:46 21:53:57 59° 260° (W) 21:58:09 437.485
DELFI C3 05 Sep 21:53:06 21:56:13 22° 71° (ENE) 21:59:25 145.870
STRAND 1 05 Sep 22:00:20 22:03:39 17° 294° (WNW) 22:06:45 437.568
COMPASS 1 05 Sep 22:02:24 22:06:31 54° 260° (W) 22:10:38 437.405
UWE-3 05 Sep 22:04:13 22:08:37 46° 74° (ENE) 22:13:07 435.000/436.395/437.385
AAUSAT CUBESAT 2 05 Sep 22:07:37 22:11:45 56° 261° (W) 22:15:51 437.432
CUBEBUG 2 05 Sep 22:08:44 22:13:21 68° 77° (ENE) 22:18:07 437.445
RS-15 05 Sep 22:13:19 22:19:32 16° 18° (NNE) 22:26:17 29.354- 29.394
BEESAT 3 05 Sep 22:20:51 22:22:00 11° 45° (NE) 22:23:18 437.485
Oscar 11 05 Sep 22:25:32 22:29:54 86° 258° (WSW) 22:34:16 145.826/435.025
DX 1 05 Sep 22:29:40 22:31:36 13° 67° (ENE) 22:33:45 434.975-435.025
UKube-1 05 Sep 22:33:28 22:35:17 13° 67° (ENE) 22:37:20 .
BEESAT 2 05 Sep 22:40:37 22:42:37 13° 47° (NE) 22:44:44 435.950
Cosmos 2504 05 Sep 22:47:38 22:54:33 32° 86° (E) 23:01:57 435.465 / 435.565
HO-68 05 Sep 22:48:14 22:53:33 21° 268° (W) 22:58:36 435.675
ANTELSAT 05 Sep 22:52:45 22:53:24 10° 88° (E) 22:54:22 437.575/2403.000
CINEMA 3 05 Sep 22:57:40 23:00:49 17° 270° (W) 23:03:49 145.822/145.860
YUBILEINY 05 Sep 23:03:34 23:11:05 29° 290° (WNW) 23:18:24 435.215
Cosmos 2491 05 Sep 23:05:31 23:08:51 12° 281° (W) 23:11:24 435.465 / 435.565
AISAT 05 Sep 23:12:37 23:16:15 26° 71° (ENE) 23:19:59 437.250
CUSAT 1 05 Sep 23:18:20 23:21:04 17° 83° (E) 23:24:31 437.405
HUMSAT D 05 Sep 23:19:19 23:23:39 88° 256° (WSW) 23:28:00 437.325/437.525
ESTCUBE 1 05 Sep 23:20:24 23:23:53 23° 70° (ENE) 23:27:27 437.505/2401.250
ZACube-1 05 Sep 23:21:21 23:25:26 32° 264° (W) 23:29:33 437.345
SO-50 05 Sep 23:23:41 23:26:39 17° 110° (ESE) 23:29:51 436.795
FUNcube-1 05 Sep 23:24:09 23:28:12 30° 264° (W) 23:32:15 145.935
50 SAT 05 Sep 23:25:45 23:29:28 40° 74° (ENE) 23:33:12 437.505
DELFI C3 05 Sep 23:27:56 23:31:12 23° 265° (W) 23:34:22 145.870
VELOX 1 05 Sep 23:38:29 23:42:43 49° 74° (ENE) 23:47:00 145.980
UNISAT 6 05 Sep 23:40:36 23:44:50 40° 98° (E) 23:48:59 437.425
DUCHIFAT 1 05 Sep 23:41:41 23:43:14 12° 90° (E) 23:45:03 145.980
UWE-3 05 Sep 23:42:39 23:45:25 15° 269° (W) 23:47:59 435.000/436.395/437.385
POLYITAN 1 05 Sep 23:45:26 23:47:47 15° 92° (E) 23:50:19 437.675
POPSAT HIP 1 05 Sep 23:45:47 23:48:04 15° 91° (E) 23:50:33 437.405
AIST 2 05 Sep 23:54:54 23:57:32 16° 48° (NE) 00:00:14 435.215
BEESAT 3 05 Sep 23:56:24 00:00:24 66° 243° (WSW) 00:04:18 437.485
NANOSAT C BR1 05 Sep 23:59:54 00:03:08 21° 94° (E) 00:06:28 145.865
QB50P2 06 Sep 00:03:16 00:06:46 25° 95° (E) 00:10:20 145.880/145.840
DX 1 06 Sep 00:03:16 00:07:27 48° 260° (W) 00:11:41 434.975-435.025
SPROUT 06 Sep 00:05:57 00:08:41 17° 69° (ENE) 00:11:36 437.525
TIGRISAT 06 Sep 00:06:37 00:11:08 81° 101° (E) 00:15:31 435.000
UKube-1 06 Sep 00:06:51 00:11:01 49° 260° (W) 00:15:14 .
QB50P1 06 Sep 00:15:32 00:19:25 33° 97° (E) 00:23:18 145.935-145.965
BEESAT 2 06 Sep 00:17:04 00:21:00 51° 244° (WSW) 00:24:51 435.950
AUBIESAT-1 06 Sep 00:22:12 00:25:46 49° 104° (ESE) 00:29:05 437.475
RS-15 06 Sep 00:25:19 00:36:25 45° 48° (NE) 00:48:00 29.354- 29.394
ANTELSAT 06 Sep 00:26:15 00:30:40 57° 285° (WNW) 00:34:57 437.575/2403.000
DANDE 06 Sep 00:26:19 00:29:55 54° 93° (E) 00:34:46 436.750
CUBEBUG 1 06 Sep 00:31:06 00:35:23 65° 260° (W) 00:39:43 437.445
M-CUBED/EXP-1 PRIME 06 Sep 00:33:06 00:36:51 90° 295° (WNW) 00:40:18 437.505
Cosmos 2504 06 Sep 00:38:34 00:46:28 48° 284° (WNW) 00:54:41 435.465 / 435.565
PCSat 06 Sep 00:44:42 00:49:29 34° 110° (ESE) 00:54:22 145.827
TISAT 1 06 Sep 00:46:27 00:49:58 27° 71° (ENE) 00:53:36 437.305
AISAT 06 Sep 00:49:13 00:52:47 23° 265° (W) 00:56:18 437.250
VERMONT LUNAR 06 Sep 00:50:57 00:53:20 21° 147° (SSE) 00:55:44 437.305
ESTCUBE 1 06 Sep 00:56:47 01:00:38 27° 264° (W) 01:04:26 437.505/2401.250
BUGSAT 1 06 Sep 00:57:27 01:01:42 62° 101° (ESE) 01:05:54 437.445
CUSAT 1 06 Sep 00:59:02 01:03:00 36° 288° (WNW) 01:08:10 437.405
SO-50 06 Sep 01:02:13 01:06:49 47° 304° (NW) 01:11:35 436.795
50 SAT 06 Sep 01:02:36 01:04:13 12° 269° (W) 01:05:36 437.505
DUCHIFAT 1 06 Sep 01:15:14 01:19:21 46° 286° (WNW) 01:23:25 145.980
VELOX 1 06 Sep 01:17:44 01:19:37 12° 270° (W) 01:21:14 145.980
UNISAT 6 06 Sep 01:18:29 01:21:17 16° 292° (WNW) 01:23:52 437.425
POLYITAN 1 06 Sep 01:19:52 01:23:53 38° 287° (WNW) 01:27:50 437.675
POPSAT HIP 1 06 Sep 01:20:07 01:24:09 39° 287° (WNW) 01:28:07 437.405
SWISSCUBE 06 Sep 01:29:28 01:32:17 16° 67° (ENE) 01:35:18 437.505
AIST 2 06 Sep 01:32:23 01:36:19 42° 245° (WSW) 01:40:11 435.215
NANOSAT C BR1 06 Sep 01:35:19 01:38:58 27° 289° (WNW) 01:42:31 145.865
QB50P2 06 Sep 01:39:06 01:42:34 23° 289° (WNW) 01:45:54 145.880/145.840
SPROUT 06 Sep 01:40:35 01:44:31 34° 263° (W) 01:48:28 437.525
Oscar 19 06 Sep 01:45:41 01:47:46 13° 89° (E) 01:50:11 437.125/150
QB50P1 06 Sep 01:52:05 01:55:02 18° 291° (WNW) 01:57:50 145.935-145.965
GONETS M04 06 Sep 01:56:12 02:02:27 24° 84° (E) 02:09:06
ITUPSAT 1 06 Sep 02:09:09 02:13:31 38° 72° (ENE) 02:17:56 437.325
TISAT 1 06 Sep 02:22:32 02:25:45 20° 266° (W) 02:28:52 437.305
VERMONT LUNAR 06 Sep 02:26:34 02:29:33 63° 341° (NNW) 02:32:32 437.305
PCSat 06 Sep 02:28:13 02:32:56 29° 306° (NW) 02:37:36 145.827
BUGSAT 1 06 Sep 02:36:22 02:36:40 10° 294° (WNW) 02:36:42 437.445
RS-15 06 Sep 02:37:45 02:49:18 55° 248° (WSW) 03:00:59 29.354- 29.394
BEESAT 06 Sep 02:38:08 02:42:54 81° 77° (ENE) 02:47:41 436.000
Cosmos 2499 06 Sep 02:47:20 02:47:37 10° 78° (ENE) 02:48:47 435.465 / 435.565
ITAMSAT 1 06 Sep 02:56:31 02:59:23 15° 91° (E) 03:02:30 435.822/435.867
SWISSCUBE 06 Sep 03:05:14 03:09:49 46° 261° (W) 03:14:23 437.505
Gurwin Techsat 1B 06 Sep 03:10:57 03:15:27 29° 95° (E) 03:20:03 435.225
STARS 06 Sep 03:20:52 03:23:58 20° 69° (ENE) 03:27:13 437.465
Oscar 19 06 Sep 03:22:30 03:27:39 63° 286° (WNW) 03:32:45 437.125/150
PHONESAT 2.4 06 Sep 03:23:17 03:26:22 31° 149° (SSE) 03:29:28 2401.200-2431.200
ITUPSAT 1 06 Sep 03:48:10 03:51:34 19° 267° (W) 03:54:49 437.325
GONETS M04 06 Sep 03:50:06 03:58:42 63° 280° (W) 04:07:21
KKS-1 06 Sep 03:52:45 03:57:12 80° 76° (ENE) 04:01:41 437.445
AO-7 06 Sep 04:03:08 04:07:45 17° 90° (E) 04:12:57 29.400- 29.500
VERMONT LUNAR 06 Sep 04:03:32 04:06:13 29° 357° (N) 04:08:53 437.305
O/OREOS (USA 219) 06 Sep 04:13:39 04:17:40 29° 63° (ENE) 04:21:41 437.305
Cosmos 2499 06 Sep 04:30:58 04:39:23 69° 93° (E) 04:48:13 435.465 / 435.565
ITAMSAT 1 06 Sep 04:34:13 04:39:16 54° 287° (WNW) 04:44:19 435.822/435.867
JAS-2 06 Sep 04:35:03 04:41:41 83° 102° (ESE) 04:47:29 435.910
MOZHAYETS 4 06 Sep 04:47:23 04:51:41 42° 74° (ENE) 04:56:02
Gurwin Techsat 1B 06 Sep 04:50:47 04:55:25 30° 290° (WNW) 04:59:57 435.225
STARS 06 Sep 04:56:13 05:00:12 32° 263° (W) 05:04:11 437.465
HORYU 2 06 Sep 04:59:40 05:03:37 31° 97° (E) 05:07:34 437.375
PHONESAT 2.4 06 Sep 05:00:46 05:04:09 56° 344° (NNW) 05:07:31 2401.200-2431.200
VERMONT LUNAR 06 Sep 05:40:06 05:42:58 42° 14° (NNE) 05:45:49 437.305
AO-7 06 Sep 05:53:17 06:01:37 84° 287° (WNW) 06:09:54 29.400- 29.500
O/OREOS (USA 219) 06 Sep 05:53:20 05:56:57 22° 258° (WSW) 06:00:26 437.305
ISS 06 Sep 06:14:44 06:16:44 16° 129° (SE) 06:18:49 145.825
JAS-2 06 Sep 06:22:28 06:25:48 14° 301° (WNW) 06:28:37 435.910
MOZHAYETS 4 06 Sep 06:26:15 06:29:08 16° 268° (W) 06:31:50
Cosmos 2499 06 Sep 06:26:39 06:33:25 24° 293° (WNW) 06:40:01 435.465 / 435.565
HORYU 2 06 Sep 06:36:45 06:40:03 20° 291° (WNW) 06:43:13 437.375
PHONESAT 2.4 06 Sep 06:39:13 06:42:22 33° 0° (N) 06:45:30 2401.200-2431.200
CUBESAT XI-V 06 Sep 06:57:17 07:01:53 89° 43° (NE) 07:06:30 437.345
Cubesat XI-IV 06 Sep 06:59:04 07:03:09 23° 94° (E) 07:07:23 437.490
AIST 1 06 Sep 07:14:37 07:16:22 13° 88° (E) 07:18:21
VERMONT LUNAR 06 Sep 07:16:32 07:19:19 37° 209° (SSW) 07:22:05 437.305
YUBILEINY 06 Sep 07:20:27 07:26:45 22° 67° (ENE) 07:33:26 435.215
STRAND 1 06 Sep 07:32:41 07:37:36 53° 74° (ENE) 07:42:35 437.568
CUTE-I 06 Sep 07:41:18 07:46:34 61° 101° (E) 07:51:51 437.470
AO-7 06 Sep 07:48:23 07:53:24 17° 305° (NW) 07:57:57 29.400- 29.500
ISS 06 Sep 07:49:50 07:52:55 39° 322° (NW) 07:56:00 145.825
BRITE-PL 06 Sep 07:56:34 08:00:10 18° 90° (E) 08:04:03 437.365/2234.400
PRISM 06 Sep 08:00:38 08:04:41 72° 76° (ENE) 08:08:46 437.425
Cosmos 2491 06 Sep 08:07:26 08:13:44 24° 84° (E) 08:20:25 435.465 / 435.565
PHONESAT 2.4 06 Sep 08:17:13 08:20:35 57° 17° (NNE) 08:23:56 2401.200-2431.200
HO-68 06 Sep 08:32:49 08:35:04 12° 87° (E) 08:37:57 435.675
Cubesat XI-IV 06 Sep 08:38:28 08:43:23 38° 289° (WNW) 08:48:15 437.490
AIST 1 06 Sep 08:49:40 08:53:40 40° 281° (W) 08:57:41
CUTE 1.7 + AOD 2 06 Sep 09:12:39 09:15:24 17° 92° (E) 09:18:17 437.475
STRAND 1 06 Sep 09:14:15 09:17:12 15° 269° (W) 09:19:54 437.568
YUBILEINY 06 Sep 09:15:44 09:24:31 70° 266° (W) 09:33:10 435.215
DOVE 4 06 Sep 09:15:51 09:20:39 35° 95° (E) 09:25:22 437.250
CINEMA 3 06 Sep 09:18:40 09:21:06 14° 89° (E) 09:23:44 145.822/145.860
CUTE-I 06 Sep 09:23:03 09:26:12 15° 295° (WNW) 09:29:06 437.470
CANX-2 06 Sep 09:26:55 09:30:35 29° 96° (E) 09:34:16 2200.000
GOMX 1 06 Sep 09:31:28 09:37:01 86° 102° (ESE) 09:42:26 467.674
BRITE-PL 06 Sep 09:33:29 09:39:01 56° 286° (WNW) 09:44:34 437.365/2234.400
PCSat 06 Sep 09:36:18 09:39:35 16° 48° (NE) 09:43:03 145.827
SO-50 06 Sep 09:36:30 09:41:25 68° 58° (ENE) 09:46:11 436.795
SEEDS 06 Sep 09:37:27 09:40:58 27° 95° (E) 09:44:32 437.485
COMPASS 1 06 Sep 09:49:02 09:52:35 28° 96° (E) 09:56:11 437.405
AAUSAT CUBESAT 2 06 Sep 09:53:50 09:57:18 26° 96° (E) 10:00:49 437.432
PHONESAT 2.4 06 Sep 09:55:19 09:58:20 30° 212° (SSW) 10:01:21 2401.200-2431.200
CUSAT 1 06 Sep 09:55:28 10:01:28 23° 66° (ENE) 10:07:42 437.405
UWE-3 06 Sep 09:59:51 10:01:05 11° 89° (E) 10:02:36 435.000/436.395/437.385
Cosmos 2491 06 Sep 10:01:25 10:10:01 62° 281° (W) 10:18:38 435.465 / 435.565
CUBEBUG 2 06 Sep 10:04:19 10:07:22 18° 92° (E) 10:10:30 437.445
HO-68 06 Sep 10:16:39 10:23:54 86° 105° (ESE) 10:31:06 435.675
Oscar 11 06 Sep 10:16:43 10:19:56 21° 94° (E) 10:23:16 145.826/435.025
JUGNU 06 Sep 10:18:22 10:19:04 10° 166° (SSE) 10:19:53 437.505
Cosmos 2504 06 Sep 10:29:02 10:37:01 49° 77° (ENE) 10:44:30 435.465 / 435.565
UNISAT 6 06 Sep 10:36:30 10:40:24 27° 71° (ENE) 10:44:24 437.425
CUTE 1.7 + AOD 2 06 Sep 10:47:39 10:51:24 31° 287° (WNW) 10:55:06 437.475
NANOSAT C BR1 06 Sep 10:51:20 10:52:40 12° 67° (ENE) 10:54:13 145.865
DOVE 4 06 Sep 10:53:53 10:58:12 25° 291° (WNW) 11:02:18 437.250
CINEMA 3 06 Sep 10:53:54 10:58:42 51° 286° (WNW) 11:03:15 145.822/145.860
QB50P2 06 Sep 10:54:35 10:56:36 14° 68° (ENE) 10:58:51 145.880/145.840
TIGRISAT 06 Sep 11:01:47 11:06:18 49° 74° (ENE) 11:10:52 435.000
CANX-2 06 Sep 11:03:17 11:06:20 19° 290° (WNW) 11:09:15 2200.000
AUBIESAT-1 06 Sep 11:05:27 11:09:56 45° 69° (ENE) 11:14:19 437.475
QB50P1 06 Sep 11:06:05 11:08:55 18° 69° (ENE) 11:11:52 145.935-145.965
DANDE 06 Sep 11:06:52 11:14:50 53° 76° (ENE) 11:23:04 436.750
HUMSAT D 06 Sep 11:07:28 11:10:18 18° 93° (E) 11:13:14 437.325/437.525
DELFI C3 06 Sep 11:08:50 11:12:45 56° 100° (E) 11:16:39 145.870
GOMX 1 06 Sep 11:12:26 11:14:26 12° 296° (WNW) 11:16:05 467.674
ZACube-1 06 Sep 11:12:41 11:17:04 63° 100° (E) 11:21:19 437.345
SEEDS 06 Sep 11:13:29 11:16:37 20° 290° (WNW) 11:19:39 437.485
FUNcube-1 06 Sep 11:15:10 11:19:33 65° 100° (E) 11:23:48 145.935
M-CUBED/EXP-1 PRIME 06 Sep 11:16:36 11:21:22 73° 72° (ENE) 11:26:02 437.505
PCSat 06 Sep 11:18:11 11:23:35 69° 247° (WSW) 11:28:57 145.827
SO-50 06 Sep 11:19:38 11:21:25 12° 252° (WSW) 11:22:54 436.795
ANTELSAT 06 Sep 11:21:21 11:26:03 85° 77° (ENE) 11:30:48 437.575/2403.000
COMPASS 1 06 Sep 11:25:05 11:28:05 19° 290° (WNW) 11:30:59 437.405
AAUSAT CUBESAT 2 06 Sep 11:29:40 11:32:45 20° 289° (WNW) 11:35:43 437.432
UWE-3 06 Sep 11:33:39 11:38:03 53° 285° (WNW) 11:42:18 435.000/436.395/437.385
VELOX 1 06 Sep 11:33:56 11:35:35 12° 90° (E) 11:37:31 145.980
CUBEBUG 2 06 Sep 11:40:00 11:44:12 35° 288° (WNW) 11:48:13 437.445
